Date String (YYYY-MM-DD hh:mm:ss) UTC,Instrument flags,absolute air pressure of the measurement (hPa),sample flow rate (lpm),inlet stack bypass flow (lpm),air temperature of the measurement (°C),ambient temperature measured by the external sensor (°C),aerosol sample conditioner tube jacket temperature (°C),OPC LED temperature (°C),internal box temperature (°C),relative humidity of the measurement (%),span deviation,mass concentration of particles derived from Lorenz-Mie calculation of OPC scattering (μg/m³),mass concentration of particles derived from Lorenz-Mie calculation of OPC scattering (μg/m³),mass concentration of particles derived from Lorenz-Mie calculation of OPC scattering (μg/m³)
DateTimeUTC,F1_M11,P_M11,Q1_M11,Q2_M11,T1_M11,T2_M11,T3_M11,T4_M11,T5_M11,U1_M11,ZSPAN_M11,X0_M11,X2_M11,X1_M11
2024-02-19 08:00:00,SystemResetWarning,0823.7,4.99,000.00,018.4,017.9,000.0,026.8,020.1,12.5,0000.0,0001.78,0000.43,0000.30
2024-02-19 08:01:00,SystemResetWarning,0823.6,5.00,000.00,018.4,017.9,000.0,026.8,020.1,12.3,0000.0,0001.87,0000.42,0000.30
2024-02-19 08:02:00,SystemResetWarning,0823.5,5.00,000.00,018.4,017.9,000.0,026.8,020.1,12.4,0000.0,0001.88,0000.43,0000.30
2024-02-19 08:03:00,SystemResetWarning,0823.3,5.01,000.00,018.4,017.9,000.0,026.8,020.1,12.3,0000.0,0001.84,0000.42,0000.30
2024-02-19 08:04:00,SystemResetWarning,0823.3,5.01,000.00,018.4,017.9,000.0,026.8,020.1,12.3,0000.0,0001.83,0000.38,0000.29
2024-02-19 08:05:00,SystemResetWarning,0823.4,5.01,000.00,018.4,017.9,000.0,026.8,020.1,12.3,0000.0,0002.79,0000.38,0000.29
2024-02-19 08:06:00,SystemResetWarning,0823.3,4.99,000.00,018.4,017.9,000.0,026.8,020.1,12.3,0000.0,0002.76,0000.37,0000.29
2024-02-19 08:07:00,SystemResetWarning,0823.1,5.00,000.00,018.4,017.9,000.0,026.8,020.1,12.4,0000.0,0002.80,0000.37,0000.29
2024-02-19 08:08:00,SystemResetWarning,0823.2,5.01,000.00,018.4,017.8,000.0,026.8,020.1,12.5,0000.0,0002.83,0000.38,0000.29
2024-02-19 08:09:00,SystemResetWarning,0823.4,5.01,000.00,018.4,017.8,000.0,026.8,020.0,12.4,0000.0,0002.87,0000.40,0000.29
2024-02-19 08:10:00,SystemResetWarning,0823.4,5.01,000.00,018.4,017.8,000.0,026.8,020.0,12.4,0000.0,0002.87,0000.40,0000.30
2024-02-19 08:11:00,SystemResetWarning,0823.5,5.00,000.00,018.4,017.8,000.0,026.8,020.0,12.5,0000.0,0002.27,0000.39,0000.29
2024-02-19 08:12:00,SystemResetWarning,0823.5,5.00,000.00,018.4,017.8,000.0,026.8,020.0,12.5,0000.0,0001.82,0000.38,0000.29
2024-02-19 08:13:00,SystemResetWarning,0823.5,4.99,000.00,018.4,017.8,000.0,026.8,020.0,12.6,0000.0,0001.82,0000.38,0000.29
2024-02-19 08:14:00,SystemResetWarning,0823.5,5.00,000.00,018.4,017.8,000.0,026.8,020.0,12.5,0000.0,0001.79,0000.37,0000.29
2024-02-19 08:15:00,SystemResetWarning,0823.5,5.01,000.00,018.4,017.8,000.0,026.8,020.0,12.6,0000.0,0001.75,0000.38,0000.29
2024-02-19 08:16:00,SystemResetWarning,0823.6,5.00,000.00,018.4,017.8,000.0,026.8,020.0,12.6,0000.0,0000.61,0000.39,0000.29
2024-02-19 08:17:00,SystemResetWarning,0823.7,5.01,000.00,018.3,017.8,000.0,026.8,020.0,12.5,0000.0,0000.66,0000.41,0000.29
2024-02-19 08:18:00,SystemResetWarning,0823.6,5.00,000.00,018.3,017.8,000.0,026.8,020.0,12.6,0000.0,0000.65,0000.41,0000.29
2024-02-19 08:19:00,SystemResetWarning,0823.7,5.01,000.00,018.3,017.8,000.0,026.8,020.0,12.6,0000.0,0000.65,0000.40,0000.29
2024-02-19 08:20:00,SystemResetWarning,0823.7,5.00,000.00,018.3,017.8,000.0,026.8,020.0,12.8,0000.0,0000.64,0000.40,0000.29
2024-02-19 08:21:00,SystemResetWarning,0823.7,4.99,000.00,018.3,017.8,000.0,026.8,020.0,12.8,0000.0,0000.62,0000.39,0000.28
2024-02-19 08:22:00,SystemResetWarning,0823.7,5.00,000.00,018.4,017.8,000.0,026.8,020.0,12.7,0000.0,0000.59,0000.38,0000.29
2024-02-19 08:23:00,SystemResetWarning,0823.8,4.99,000.00,018.4,017.8,000.0,026.7,020.0,12.7,0000.0,0000.57,0000.38,0000.29
2024-02-19 08:24:00,SystemResetWarning,0823.8,5.00,000.00,018.4,017.8,000.0,026.7,020.0,12.7,0000.0,0000.56,0000.38,0000.29
2024-02-19 08:25:00,SystemResetWarning,0823.8,5.00,000.00,018.4,017.8,000.0,026.8,020.0,13.0,0000.0,0000.60,0000.40,0000.29
2024-02-19 08:26:00,SystemResetWarning,0823.8,5.00,000.00,018.4,017.8,000.0,026.8,020.0,12.8,0000.0,0000.65,0000.43,0000.30
2024-02-19 08:27:00,SystemResetWarning,0823.9,5.00,000.00,018.4,017.8,000.0,026.8,020.0,12.7,0000.0,0000.63,0000.42,0000.30
2024-02-19 08:28:00,SystemResetWarning,0823.8,5.00,000.00,018.4,017.8,000.0,026.8,020.0,12.6,0000.0,0000.64,0000.41,0000.30
2024-02-19 08:29:00,SystemResetWarning,0823.9,5.01,000.00,018.4,017.8,000.0,026.7,020.0,12.6,0000.0,0000.82,0000.41,0000.30
2024-02-19 08:30:00,SystemResetWarning,0823.8,5.01,000.00,018.4,017.8,000.0,026.7,020.0,12.7,0000.0,0000.92,0000.40,0000.30
2024-02-19 08:31:00,SystemResetWarning,0823.8,5.00,000.00,018.4,017.8,000.0,026.8,020.0,12.9,0000.0,0001.25,0000.42,0000.30
2024-02-19 08:32:00,SystemResetWarning,0823.8,4.99,000.00,018.4,017.8,000.0,026.8,020.0,12.7,0000.0,0001.30,0000.44,0000.31
2024-02-19 08:33:00,SystemResetWarning,0823.8,5.00,000.00,018.4,017.8,000.0,026.7,020.0,12.8,0000.0,0001.30,0000.45,0000.31
2024-02-19 08:34:00,SystemResetWarning,0823.8,5.00,000.00,018.4,017.8,000.0,026.7,020.0,13.0,0000.0,0001.32,0000.45,0000.31
2024-02-19 08:35:00,SystemResetWarning,0823.8,5.00,000.00,018.3,017.8,000.0,026.7,020.0,12.9,0000.0,0001.44,0000.45,0000.30
2024-02-19 08:36:00,SystemResetWarning,0823.8,5.00,000.00,018.3,017.8,000.0,026.8,020.0,13.2,0000.0,0001.61,0000.43,0000.30
2024-02-19 08:37:00,SystemResetWarning,0823.7,5.00,000.00,018.3,017.8,000.0,026.8,020.0,12.7,0000.0,0001.54,0000.39,0000.29
2024-02-19 08:38:00,SystemResetWarning,0823.8,5.01,000.00,018.3,017.8,000.0,026.8,020.0,12.8,0000.0,0001.59,0000.40,0000.29
2024-02-19 08:39:00,SystemResetWarning,0823.8,5.00,000.00,018.3,017.7,000.0,026.8,020.0,12.9,0000.0,0001.63,0000.41,0000.29
2024-02-19 08:40:00,SystemResetWarning,0823.8,5.01,000.00,018.3,017.7,000.0,026.8,020.0,13.0,0000.0,0001.45,0000.41,0000.29
2024-02-19 08:41:00,SystemResetWarning,0823.7,4.99,000.00,018.3,017.7,000.0,026.8,020.0,13.1,0000.0,0001.44,0000.42,0000.28
2024-02-19 08:42:00,SystemResetWarning,0823.8,5.00,000.00,018.3,017.7,000.0,026.8,020.0,13.0,0000.0,0001.03,0000.39,0000.27
2024-02-19 08:43:00,SystemResetWarning,0823.8,5.00,000.00,018.3,017.7,000.0,026.8,020.0,13.1,0000.0,0001.04,0000.38,0000.27
2024-02-19 08:44:00,SystemResetWarning,0823.8,5.00,000.00,018.3,017.7,000.0,026.8,020.0,13.1,0000.0,0001.00,0000.35,0000.26
2024-02-19 08:45:00,SystemResetWarning,0823.7,5.00,000.00,018.3,017.7,000.0,026.8,020.0,12.9,0000.0,0001.00,0000.35,0000.25
2024-02-19 08:46:00,SystemResetWarning,0823.7,5.00,000.00,018.3,017.7,000.0,026.8,020.0,12.8,0000.0,0001.05,0000.36,0000.25
2024-02-19 08:47:00,SystemResetWarning,0823.8,5.00,000.00,018.3,017.7,000.0,026.7,020.0,12.8,0000.0,0000.80,0000.38,0000.25
2024-02-19 08:48:00,SystemResetWarning,0823.7,5.01,000.00,018.3,017.7,000.0,026.7,020.0,12.7,0000.0,0000.92,0000.39,0000.25
2024-02-19 08:49:00,SystemResetWarning,0823.7,5.01,000.00,018.3,017.7,000.0,026.8,020.0,12.6,0000.0,0000.91,0000.38,0000.25
2024-02-19 08:50:00,SystemResetWarning,0823.8,5.00,000.00,018.3,017.7,000.0,026.7,020.0,12.5,0000.0,0000.79,0000.34,0000.24
2024-02-19 08:51:00,SystemResetWarning,0823.8,5.00,000.00,018.3,017.7,000.0,026.8,020.0,12.3,0000.0,0000.79,0000.34,0000.24
2024-02-19 08:52:00,SystemResetWarning,0823.8,4.99,000.00,018.3,017.7,000.0,026.8,020.0,12.4,0000.0,0000.78,0000.34,0000.24
2024-02-19 08:53:00,SystemResetWarning,0823.8,5.01,000.00,018.3,017.7,000.0,026.8,020.0,12.5,0000.0,0000.76,0000.34,0000.24
2024-02-19 08:54:00,SystemResetWarning,0823.9,4.99,000.00,018.3,017.7,000.0,026.8,020.0,12.6,0000.0,0000.95,0000.34,0000.24
2024-02-19 08:55:00,SystemResetWarning,0824.0,4.99,000.00,018.3,017.7,000.0,026.8,020.0,12.8,0000.0,0001.45,0000.36,0000.24
2024-02-19 08:56:00,SystemResetWarning,0824.0,5.00,000.00,018.4,017.7,000.0,026.8,020.0,12.8,0000.0,0001.50,0000.38,0000.24
2024-02-19 08:57:00,SystemResetWarning,0824.0,5.02,000.00,018.3,017.7,000.0,026.8,020.0,13.1,0000.0,0001.43,0000.35,0000.24
2024-02-19 08:58:00,SystemResetWarning,0824.0,4.99,000.00,018.4,017.7,000.0,026.7,020.0,13.2,0000.0,0001.37,0000.33,0000.23
2024-02-19 08:59:00,SystemResetWarning,0824.0,4.99,000.00,018.3,017.7,000.0,026.7,020.0,13.1,0000.0,0001.30,0000.34,0000.23
